RH
26 31 31 30 27 24 19 16 14 14 18 19 13 12 14 15 15 11 8 8 10 12 14 15 13 16 21 24 26 29 33 37
34 30 25 18 14 11 9 9 11 13 16 16 14 14 17 19 16 13 12 12 12 12 12 12 12 12 14 18 21 27 33 37
32 26 20 15 13 11 8 8 11 14 18 20 21 21 21 22 20 19 19 18 16 15 15 13 13 15 16 18 21 25 28 33
27 26 20 18 18 18 17 15 18 22 25 27 28 28 26 25 24 24 24 24 23 21 20 18 16 16 16 18 21 24 27 30
30 31 24 24 26 27 28 26 25 26 28 30 31 31 30 31 30 31 31 31 32 31 30 28 24 23 22 21 20 20 20 19
35 33 27 27 27 28 30 30 32 34 36 38 39 39 39 40 40 39 36 35 36 36 37 38 36 33 28 25 24 23 23 23
37 32 28 30 32 33 35 36 37 37 38 39 41 42 42 43 42 42 41 41 41 41 42 42 41 40 37 34 31 29 29 28
42 36 34 35 36 38 40 40 40 39 40 40 39 40 40 40 40 39 40 40 41 41 42 43 42 42 41 41 40 39 37 36
43 36 36 37 40 42 42 42 41 41 40 39 39 39 39 38 38 39 39 41 42 43 43 44 43 43 44 45 46 46 45 44
45 41 42 42 44 46 48 47 45 44 43 41 40 40 40 41 41 42 43 43 44 44 45 45 46 46 47 48 48 49 49 49
45 45 46 47 49 50 52 51 50 50 50 47 48 47 46 44 46 46 46 45 46 46 46 46 46 46 47 49 49 50 49 50
46 46 49 52 52 54 57 54 52 51 50 50 49 48 48 47 43 42 45 46 46 46 47 48 48 47 47 48 49 51 51 51
48 51 53 54 57 58 57 56 54 52 49 50 51 49 48 48 45 43 42 42 45 47 48 50 49 52 53 53 50 49 50 51
53 55 57 60 61 61 57 54 53 53 54 53 51 51 49 46 43 43 43 43 45 48 50 51 51 52 52 53 52 53 55 52
60 60 60 60 61 60 58 57 57 58 57 55 53 52 49 47 45 45 45 44 44 47 51 52 54 55 56 54 53 50 53 55
63 64 63 62 63 64 63 61 57 57 55 53 50 50 47 45 39 35 34 34 34 37 42 44 52 59 59 61 56 58 55 50
62 65 68 69 69 69 66 65 63 59 55 50 48 42 36 33 32 30 29 27 26 26 27 30 36 45 55 60 62 59 61 57
69 71 72 72 70 67 66 64 63 60 57 51 45 41 38 37 35 33 29 27 27 29 30 32 33 37 43 48 62 61 59 59
73 74 71 67 68 70 69 66 60 54 49 46 44 42 41 41 40 38 35 28 26 29 33 37 43 50 53 56 63 72 68 65
71 69 68 71 74 70 69 66 63 55 55 52 48 42 41 43 42 42 42 41 44 43 48 52 54 62 65 68 75 88 83 87